This demonstration page uses our WeatherBlox Daily Observations layout. Learn more.

Left ArrowRight Arrow

39.08367, -84.50855

Hourly Observations for December 18, 2016

Temp ( °F °C ) Dew Point ( °F °C ) Humidity (%) Winds ( mph kmh ) Pressure ( in mb ) Visibility ( mi km ) Precip ( " mm )
12:14 am 00:14 Cloudy with Rain 36 2 36 2 100 100 NNW 9 15 29.74 1007 5 8 0.00 0.00
12:30 am 00:30 Cloudy with Rain 36 2 36 2 100 100 NW 14 22 29.77 1008 5 8 0.00 0.00
12:53 am 00:53 Cloudy with Rain 36 2.2 34 1.1 93 93 NW 7 11 29.75 1007 4 6 0.19 4.83
1:53 am 01:53 Cloudy with Light Rain 35 1.7 34 1.1 96 96 N 8 13 29.74 1007 10 16 0.04 1.02
2:53 am 02:53 Cloudy with Light Rain 34 1.1 32 0 92 92 NNW 6 9 29.80 1009 6 10 0.05 1.27
3:22 am 03:22 Cloudy 34 1 32 0 93 93 VRB 3 6 29.85 1011 10 16 0.00 0.00
3:35 am 03:35 Cloudy with Light Rain 34 1.1 32 0 92 92 Calm 29.85 1011 10 16 0.00 0.03
3:53 am 03:53 Cloudy with Light Rain 34 1.1 31 -0.6 89 89 WNW 8 13 29.85 1011 10 16 0.00 0.03
4:53 am 04:53 Cloudy 32 0 30 -1.1 92 92 WNW 12 19 29.93 1013 10 16 0.00 0.03
5:53 am 05:53 Cloudy 29 -1.7 26 -3.3 89 89 W 13 20 30.03 1017 10 16 0.00 0.00
6:27 am 06:27 Cloudy 28 -2.2 24 -4.4 85 85 WNW 16 26 30.09 1019 10 16 0.00 0.00
6:53 am 06:53 Cloudy 27 -2.8 22 -5.6 81 81 WNW 14 22 30.10 1019 10 16 0.00 0.00
7:53 am 07:53 Cloudy 26 -3.3 21 -6.1 81 81 WNW 14 22 30.18 1022 10 16 0.00 0.00
8:53 am 08:53 Cloudy 26 -3.3 22 -5.6 84 84 W 12 19 30.25 1024 10 16 0.00 0.00
9:53 am 09:53 Cloudy 27 -2.8 22 -5.6 81 81 W 13 20 30.30 1026 10 16 0.00 0.00
10:53 am 10:53 Cloudy 26 -3.3 20 -6.7 78 78 W 15 24 30.36 1028 10 16 0.00 0.00
11:53 am 11:53 Cloudy 26 -3.3 19 -7.2 75 75 WNW 9 15 30.40 1029 10 16 0.00 0.00
12:53 pm 12:53 Cloudy 26 -3.3 19 -7.2 75 75 W 6 9 30.42 1030 10 16 0.00 0.00
1:53 pm 13:53 Cloudy 26 -3.3 19 -7.2 75 75 WNW 6 9 30.45 1031 10 16 0.00 0.00
2:53 pm 14:53 Cloudy 25 -3.9 19 -7.2 78 78 WNW 7 11 30.47 1032 10 16 0.00 0.00
3:53 pm 15:53 Cloudy 25 -3.9 19 -7.2 78 78 NW 5 7 30.50 1033 10 16 0.00 0.00
4:53 pm 16:53 Cloudy 24 -4.4 18 -7.8 77 77 NW 7 11 30.52 1034 10 16 0.00 0.00
5:53 pm 17:53 Cloudy 24 -4.4 17 -8.3 75 75 WNW 7 11 30.55 1035 10 16 0.00 0.00
6:53 pm 18:53 Cloudy 23 -5 17 -8.3 78 78 WNW 7 11 30.59 1036 10 16 0.00 0.00
7:53 pm 19:53 Cloudy 23 -5 16 -8.9 74 74 NW 8 13 30.61 1037 10 16 0.00 0.00
8:53 pm 20:53 Cloudy 22 -5.6 15 -9.4 75 75 W 9 15 30.64 1038 10 16 0.00 0.00
9:53 pm 21:53 Cloudy 22 -5.6 16 -8.9 78 78 N 9 15 30.67 1039 10 16 0.00 0.00
10:53 pm 22:53 Cloudy 21 -6.1 15 -9.4 78 78 NW 8 13 30.68 1039 10 16 0.00 0.00
11:53 pm 23:53 Cloudy 21 -6.1 15 -9.4 78 78 NW 8 13 30.70 1040 10 16 0.00 0.00

Powered by AerisWeather